This is the latest recevied weather packets stored in our database for station/object KO4YAW. If no packets are shown the sender has not sent any weather packets the latest 10 day(s).
| Time | Temp. | Humidity | Pressure | Rain* | Wind** | Luminosity | Snow |
|---|---|---|---|---|---|---|---|
| 1777747532 | 17.78° C | 18% | 1020.6 hPa | 0 mm | - | 106 W/m² | - |
| 1777746632 | 17.78° C | 19% | 1020.8 hPa | 0 mm | - | 106 W/m² | - |
| 1777745732 | 17.22° C | 20% | 1020.9 hPa | 0 mm | - | 105 W/m² | - |
| 1777744832 | 16.11° C | 20% | 1021.1 hPa | 0 mm | - | 105 W/m² | - |
| 1777743932 | 16.67° C | 20% | 1021.4 hPa | 0 mm | - | 103 W/m² | - |
| 1777743032 | 16.11° C | 21% | 1021.4 hPa | 0 mm | - | 101 W/m² | - |
| 1777742132 | 15.56° C | 21% | 1021.5 hPa | 0 mm | - | 997 W/m² | - |
| 1777741232 | 15° C | 22% | 1021.7 hPa | 0 mm | - | 699 W/m² | - |
| 1777740332 | 15° C | 23% | 1021.7 hPa | 0 mm | - | 737 W/m² | - |
| 1777739432 | 15° C | 24% | 1021.6 hPa | 0 mm | - | 906 W/m² | - |
| 1777738532 | 15° C | 25% | 1021.8 hPa | 0 mm | - | 451 W/m² | - |
| 1777737632 | 14.44° C | 26% | 1021.8 hPa | 0 mm | - | 598 W/m² | - |
| 1777736732 | 13.89° C | 29% | 1021.9 hPa | 0 mm | - | 397 W/m² | - |
| 1777735832 | 12.78° C | 31% | 1021.9 hPa | 0 mm | - | 729 W/m² | - |
| 1777734932 | 12.22° C | 33% | 1022.4 hPa | 0 mm | - | 170 W/m² | - |
| 1777734032 | 11.11° C | 34% | 1022.4 hPa | 0 mm | - | 209 W/m² | - |
| 1777733132 | 10.56° C | 36% | 1022.5 hPa | 0 mm | - | 180 W/m² | - |
| 1777732232 | 10° C | 36% | 1022.5 hPa | 0 mm | - | 409 W/m² | - |
| 1777731332 | 8.89° C | 40% | 1022.5 hPa | 0 mm | - | 90 W/m² | - |
| 1777730432 | 8.33° C | 42% | 1022.7 hPa | 0 mm | - | 116 W/m² | - |
| 1777729532 | 7.78° C | 43% | 1022.5 hPa | 0 mm | - | 174 W/m² | - |
| 1777728632 | 6.67° C | 47% | 1022.7 hPa | 0 mm | - | 113 W/m² | - |
| 1777727732 | 5.56° C | 49% | 1022.7 hPa | 0 mm | - | 167 W/m² | - |
| 1777726832 | 4.44° C | 51% | 1022.5 hPa | 0 mm | - | 79 W/m² | - |
| 1777725932 | 4.44° C | 53% | 1022.4 hPa | 0 mm | - | 37 W/m² | - |
* Rain since midnight (hover to see other rain measurements)
** Current wind speed in m/s (hover to see current wind gust speed)